#timestamp,LO_Frequency,Hit,StdDev 
1669860015.0,286046998.3,N
1669860015.9,286046998.3,N
1669860035.8,286047001.1,N
1669860055.6,286047000.8,N
1669860075.4,286047000.8,N
1669860095.3,286046998.6,N
1669860115.1,286047001.0,N
1669860135.8,286046999.7,N
1669860155.7,286047000.9,N
1669860175.5,286047000.5,N
1669860195.4,286047001.0,N
1669860215.2,286047000.4,N
1669860235.0,286047001.4,N
1669860235.9,286047001.4,N
1669860255.8,286047001.9,N
1669860275.6,286047000.4,N
1669860295.5,286047000.1,N
1669860315.3,286046999.8,N
1669860335.1,286047002.6,N
1669860355.9,286046999.7,N
1669860375.7,286047000.2,N
1669860395.5,286047000.7,N
1669860415.4,286046999.8,N
1669860435.2,286046998.3,N
1669860455.1,286047000.5,N
1669860456.0,286047000.5,N
1669860475.8,286047001.0,N
1669860495.6,286047002.6,N
1669860515.5,286047001.5,N
1669860535.3,286047001.9,N
1669860555.1,286047001.8,N
1669860575.9,286047000.2,N
1669860595.7,286047000.8,N
1669860615.6,286046999.9,N
1669860635.4,286047002.7,N
1669860655.2,286046998.5,N
1669860675.1,286047002.7,N
1669860676.0,286047002.7,N
1669860695.8,286047000.1,N
1669860715.6,286047002.8,N
1669860735.5,286047002.8,N
1669860755.3,286046999.7,N
1669860775.2,286046999.7,N
1669860795.9,286047000.3,N
1669860815.7,286046998.4,N
1669860835.6,286047001.1,N
1669860855.4,286047000.3,N
1669860875.2,286047000.6,N
1669860895.1,286046998.2,N
1669860896.0,286046998.2,N
1669860915.8,286047000.4,N
1669860935.7,286047000.0,N
1669860955.5,286047000.9,N
1669860975.3,286047002.7,N
1669860995.2,286047002.0,N
1669861015.0,286047002.4,N
1669861015.9,286047002.4,N
1669861035.8,286047002.2,N
1669861055.6,286047002.7,N
1669861075.4,286047000.0,N
1669861095.3,286047000.4,N
1669861115.1,286046999.7,N
1669861135.9,286046999.8,N
1669861155.7,286046998.1,N
1669861175.5,286047001.0,N
1669861195.4,286047001.0,N
1669861215.2,286047002.2,N
1669861235.0,286047002.8,N
1669861235.9,286047002.8,N
1669861255.8,286047002.5,N
1669861275.6,286047002.3,N
1669861295.5,286047001.6,N
1669861315.3,286046999.7,N
1669861335.1,286047001.8,N
1669861355.9,286047002.6,N
1669861375.7,286047000.0,N
1669861395.5,286047000.4,N
1669861415.4,286047000.2,N
1669861435.2,286047000.4,N
1669861455.1,286046999.7,N
1669861456.0,286046999.7,N
1669861475.8,286047002.7,N
1669861495.6,286047002.7,N
1669861515.5,286047004.0,Y
1669861535.3,286046999.7,P
1669861555.1,286047000.4,N
1669861575.9,286046998.1,N
1669861595.7,286047000.7,N
1669861615.6,286047000.7,N
1669861635.4,286047000.3,N
1669861655.2,286047000.8,N
1669861675.1,286047000.0,N
1669861676.0,286047000.0,N
1669861695.8,286047001.2,N
1669861715.7,286047000.6,N
1669861735.5,286046998.6,N
1669861755.3,286047000.3,N
1669861775.2,286047000.9,N
1669861795.0,286047000.5,N
1669861795.9,286047000.5,N
1669861815.7,286046998.1,N
1669861835.6,286047001.2,N
1669861855.4,286047001.0,N
1669861875.3,286047001.2,N
1669861895.1,286047000.7,N
1669861896.0,286047000.7,N
1669861915.8,286047001.1,N
1669861935.7,286046998.3,N
1669861955.5,286047000.8,N
1669861975.3,286047001.2,N
1669861995.2,286047000.7,N
1669862015.0,286047000.6,N
1669862015.9,286047000.6,N
1669862035.8,286047000.6,N
1669862055.6,286047000.3,N
1669862075.4,286047000.3,N
1669862095.3,286046999.9,N
1669862115.1,286047000.2,N
1669862135.8,286047000.3,N
1669862155.7,286047000.0,N
1669862175.5,286047000.1,N
1669862195.4,286047000.0,N
1669862215.2,286046999.7,N
1669862235.0,286047002.7,Y
1669862235.9,286047002.7,P
1669862255.8,286047002.0,N
1669862275.6,286047000.2,N
1669862295.5,286047000.1,N
1669862315.3,286047002.6,N
1669862335.1,286047000.1,N
1669862355.9,286047002.8,N
1669862375.7,286047001.0,N
1669862395.5,286047000.6,N
1669862415.4,286046998.1,N
1669862435.2,286047001.2,N
1669862455.1,286046998.9,N
1669862456.0,286046998.9,N
1669862475.8,286046999.3,N
1669862495.6,286046998.3,N
1669862515.5,286046998.8,N
1669862535.3,286046999.2,N
1669862555.1,286046996.5,N
1669862575.9,286046999.6,N
1669862595.7,286046997.1,N
1669862615.6,286046997.3,N
1669862635.4,286046996.7,N
1669862655.2,286046999.6,N
1669862675.1,286046997.3,N
1669862676.0,286046997.3,N
1669862695.8,286046996.7,N
1669862715.6,286046999.6,N
1669862735.5,286046996.9,N
1669862755.3,286046998.7,N
1669862775.2,286046998.5,N
1669862795.9,286046998.4,N
1669862815.7,286046999.3,N
1669862835.6,286046998.8,N
1669862855.4,286046999.5,N
1669862875.2,286046999.2,N
1669862895.1,286046997.6,N
1669862896.0,286046997.6,N
1669862915.8,286046997.9,N
1669862935.7,286046998.0,N
1669862955.5,286046995.0,Y
1669862975.3,286046996.6,P
1669862995.2,286046996.5,P
1669863015.0,286046996.7,P
1669863015.9,286046996.7,Y
1669863035.8,286046999.8,P
1669863055.6,286047000.4,N
1669863075.4,286046999.9,N
1669863095.3,286046999.9,N
1669863115.1,286047000.1,N
1669863135.8,286047002.6,N
1669863155.7,286047004.3,N
1669863175.5,286047001.4,N
1669863195.4,286047001.8,N
1669863215.2,286047002.0,N
1669863235.0,286047002.5,N
1669863235.9,286047002.5,N
1669863255.8,286047004.0,N
1669863275.6,286047002.1,N
1669863295.4,286047001.3,N
1669863315.3,286047003.3,N
1669863335.1,286047001.7,N
1669863355.9,286047004.1,N
1669863375.7,286047004.3,N
1669863395.5,286047003.9,N
1669863415.4,286047004.0,N
1669863435.2,286047004.2,N
1669863455.0,286047003.9,N
1669863455.9,286047003.9,N
1669863475.8,286047003.6,N
1669863495.6,286047003.1,N
1669863515.5,286047003.8,N
1669863535.3,286047004.2,N
1669863555.1,286047003.8,N
1669863575.9,286047004.1,N
1669863595.7,286047001.8,N
